Regional Weather Roundup
Issued by NWS

Home | Current Version | Previous Version | Text Only | Print | Product List | Glossary Off
Versions: 1 2 3 4 5 6 7 8 9 10 11 12 13 14 15 16 17 18 19 20 21 22 23 24 25 26 27 28 29 30 31 32 33 34 35 36 37 38 39 40 41 42 43 44 45 46 47 48 49 50

000
ASUS45 KPSR 020600
RWRAZ

ARIZONA HOURLY REGIONAL WEATHER ROUNDUP
NATIONAL WEATHER SERVICE PHOENIX AZ
1100 PM MST TUE SEP 01 2015

NOTE: FAIR INDICATES FEW OR NO CLOUDS BELOW 12,000 FEET WITH NO
SIGNIFICANT WEATHER AND/OR OBSTRUCTIONS TO VISIBILITY.

AZZ001>003-036-020700-
NORTHWEST ARIZONA

CITY           SKY/WX    TMP DP  RH WIND       PRES   REMARKS
KINGMAN        PTCLDY    77  47  34 S8        30.02S
6HR MIN TEMP:  77; 6HR MAX TEMP:  93;

$$

AZZ004>008-015-016-018-020700-
NORTH CENTRAL ARIZONA

CITY           SKY/WX    TMP DP  RH WIND       PRES   REMARKS
GRAND CANYON   CLEAR     54  51  90 CALM      30.28S
6HR MIN TEMP:  53; 6HR MAX TEMP:  76;

WILLIAMS       PTCLDY    59  48  67 SE7       30.34S
PRESCOTT       PTCLDY    69  50  50 CALM      30.18R
6HR MIN TEMP:  67; 6HR MAX TEMP:  84;

FLAGSTAFF      NOT AVBL
PAYSON         MOCLDY    70  54  56 CALM      30.21R
PAGE           PTCLDY    78  49  35 S9        30.06S
6HR MIN TEMP:  78; 6HR MAX TEMP:  88;

$$

AZZ009>014-017-020700-
NORTHEAST ARIZONA

CITY           SKY/WX    TMP DP  RH WIND       PRES   REMARKS
WINSLOW        NOT AVBL
SAINT JOHNS    MOCLDY    66  52  60 S6        30.22S
6HR MIN TEMP:  66; 6HR MAX TEMP:  80;

WINDOW ROCK    CLOUDY    60  53  77 CALM      30.29S
6HR MIN TEMP:  59; 6HR MAX TEMP:  71; 6HR PCP: TRACE;

SHOW LOW       MOCLDY    59  52  77 S8        30.29S
$$

AZZ023-020700-
GREATER PHOENIX AREA

CITY           SKY/WX    TMP DP  RH WIND       PRES   REMARKS
PHOENIX        MOCLDY    90  65  43 CALM      29.86R
6HR MIN TEMP:  90; 6HR MAX TEMP:  98;

DEER VALLEY    PTCLDY    89  57  33 CALM      29.89R
6HR MIN TEMP:  88; 6HR MAX TEMP:  96;

SCOTTSDALE     PTCLDY    89  62  40 CALM      29.90S
6HR MIN TEMP:  89; 6HR MAX TEMP:  95;

MESA-GATEWAY   PTCLDY    86  66  51 SE8       29.91R
$$

AZZ027-028-020700-
SOUTHWEST MARICOPA COUNTY AND PINAL COUNTY

CITY           SKY/WX    TMP DP  RH WIND       PRES   REMARKS
CASA GRANDE    CLOUDY    88  64  45 CALM      29.90R
6HR MIN TEMP:  88; 6HR MAX TEMP:  99; 6HR PCP:  3.11;

$$

AZZ503-504-507>509-020700-
SOUTHEAST ARIZONA

CITY           SKY/WX    TMP DP  RH WIND       PRES   REMARKS
TUCSON         CLOUDY    83  65  54 SE6       30.03S
6HR MIN TEMP:  83; 6HR MAX TEMP:  93; 6HR PCP: TRACE;

DAVIS-MONTHAN  PTCLDY    81  68  64 SE3       30.01S
6HR MIN TEMP:  80; 6HR MAX TEMP:  91;

NOGALES        CLOUDY    76  57  51 SE3       30.13S
6HR MIN TEMP:  75; 6HR MAX TEMP:  88;

SIERRA VISTA   CLOUDY    75  52  45 SW3       30.19R
6HR MIN TEMP:  74; 6HR MAX TEMP:  85;

SAFFORD        CLOUDY    75  68  78 CALM      30.02F
6HR MIN TEMP:  75; 6HR MAX TEMP:  87;

$$

AZZ020-021-025-026-031-020700-
SOUTHWEST ARIZONA

CITY           SKY/WX    TMP DP  RH WIND       PRES   REMARKS
YUMA           NOT AVBL
$$

CAZ031-033-041-043-047-048-061-020700-
SOUTHERN CALIFORNIA

CITY           SKY/WX    TMP DP  RH WIND       PRES   REMARKS
DOWNTOWN L.A.  MOCLDY    69  61  75 CALM      29.94S
6HR MIN TEMP:  69; 6HR MAX TEMP:  77;

L.A. AIRPORT   MOCLDY    69  62  78 VRB3      29.95S
6HR MIN TEMP:  68; 6HR MAX TEMP:  73;

SAN DIEGO      CLOUDY    70  61  73 SW6       29.98R
6HR MIN TEMP:  70; 6HR MAX TEMP:  72;

BURBANK        MOCLDY    69  62  78 S5        29.95S
6HR MIN TEMP:  69; 6HR MAX TEMP:  79;

ONTARIO        MOCLDY    68  60  75 W6        29.96S
6HR MIN TEMP:  68; 6HR MAX TEMP:  81;

RIVERSIDE      MOCLDY    68  60  75 W7        29.96S
6HR MIN TEMP:  68; 6HR MAX TEMP:  85;

PALM SPRINGS   PTCLDY    88  54  31 NW10      29.82S
6HR MIN TEMP:  88; 6HR MAX TEMP: 101;

EL CENTRO NAS  CLEAR     88  43  20 SE3       29.79S
6HR MIN TEMP:  88; 6HR MAX TEMP: 104;

IMPERIAL       CLEAR     88  49  25 CALM      29.77R
6HR MIN TEMP:  86; 6HR MAX TEMP: 104;

BLYTHE         CLEAR     92  52  25 S10       29.80S
6HR MIN TEMP:  92; 6HR MAX TEMP: 104;

$$

NVZ020-UTZ003-020700-
SOUTHERN NEVADA-UTAH

CITY           SKY/WX    TMP DP  RH WIND       PRES   REMARKS
LAS VEGAS      NOT AVBL
SALT LAKE CITY PTCLDY    81  37  20 S22G28    29.92R
6HR MIN TEMP:  79; 6HR MAX TEMP:  91; 6HR PCP: TRACE;

$$

NMZ009-TXZ055-020700-
NEW MEXICO-WEST TEXAS

CITY           SKY/WX    TMP DP  RH WIND       PRES   REMARKS
ALBUQUERQUE    MOCLDY    72  42  34 SE5       30.18S
6HR MIN TEMP:  72; 6HR MAX TEMP:  85;

EL PASO        MOCLDY    88  42  20 CALM      30.05S
6HR MIN TEMP:  87; 6HR MAX TEMP:  95;

$$


........................KEY........................
SKY/WX - SKY CONDITION/WEATHER
TMP    - TEMPERATURE IN FAHRENHEIT
DP     - DEW POINT IN FAHRENHEIT
RH     - RELATIVE HUMIDITY IN PERCENT
WIND   - DIRECTION AND SPEED IN MILES PER HOUR (MPH)
VRB    - VARIABLE WIND DIRECTION
PRES   - MEAN SEA LEVEL PRESSURE IN INCHES OF MERCURY
         F - FALLING PRESSURE   R - RISING PRESSURE
         S - STEADY PRESSURE
VSB    - VISIBILITY IN MILES
HX     - HEAT INDEX IN FAHRENHEIT
WCI    - WIND CHILL INDEX IN FAHRENHEIT
TC     - TEMPERATURE IN CELSIUS WHICH IS ALSO KNOWN AS
         TEMPERATURE IN CENTIGRADE
AFB    - AIR FORCE BASE
         LUKE AFB IS LUKE AIR FORCE BASE
         DAVIS-MONTHAN IS DAVIS-MONTHAN AIR FORCE BASE
NAS    - NAVAL AIR STATION
         EL CENTRO NAS IS EL CENTRO NAVAL AIR STATION
N/A    - NOT AVAILABLE



USA.gov is the U.S. government's official web portal to all federal, state and local government web resources and services.